Location: Unspecified
(0.0000°N, 0.0000°E)
Time: 18:27:50
(UTC+00:00)

ISS - Visible Passes

Search period start: 27 June 2016 00:00
Search period end: 07 July 2016 00:00
Orbit: 402 x 403 km, 51.6° (Epoch: 27 June)

Date Brightness Start Highest point End Pass type
(mag) Time Alt. Az. Time Alt. Az. Time Alt. Az.
27 Jun -1.2 05:30:18 10° S 05:32:58 23° SE 05:35:38 10° ENE visible
27 Jun -0.7 18:40:41 10° W 18:42:49 16° SW 18:44:56 10° SSW visible
29 Jun -3.4 05:20:44 11° SW 05:23:48 81° WNW 05:27:03 10° NNE visible
30 Jun -1.9 04:30:43 30° SE 04:31:07 31° SE 04:34:03 10° ENE visible
01 Jul -1.6 05:13:20 16° W 05:14:38 19° NW 05:17:03 10° N visible
02 Jul -1.7 04:23:14 30° N 04:23:14 30° N 04:25:06 10° NNE visible
